Weather in Verkhnyaya Pesha

Russia / Nenets Autonomous Okrug     66°36′34″N   47°57′11″E
temp.,
°C
wind,
m/s
gust,
m/s
humid.,
%
clouds,
%
prec.,
mm/h
press.,
hPa
HPBL,
m
19 january, wed
wed1900:00−15sw4697100 0.1 100076
03:00−14sw3410090 0.1 99953
06:00−13sw469658 0.0 99979
09:00−13ssw51194100 0.0 997180
12:00−9ssw81685100 0.0 995426
15:00−8ssw91793100 0.9 992618
18:00−7ssw91691100 0.9 990611
21:00−6ssw81594100 1.6 989559
20 january, thu
thu2000:00−6ssw81592100 0.6 988536
03:00−6s81592100 1.2 988529
06:00−6s81594100 1.0 987543
09:00−6s81594100 2.4 987552
12:00−5s81594100 1.4 987548
15:00−5s81589100 1.6 988483
18:00−4ssw8159299 0.2 989508
21:00−3ssw8159392 0.6 990490
21 january, fri
fri2100:00−2ssw71493100 0.2 992415
03:00−1ssw71395100 0.4 995474
06:00−2ssw61295100 0.3 996451
09:00−2ssw71395100 0.8 998522
12:00−3ssw71295100 0.7 1001500
15:00−4ssw61293100 1.3 1004442
18:00−5ssw61293100 0.3 1006394
21:00−6ssw61194100 0.5 1009346
22 january, sat
sat2200:00−7ssw51094100 0.3 1012262
03:00−8ssw599498 0.4 1015195
06:00−9ssw479589 0.4 1017203
09:00−9ssw4795100 0.6 1019151
12:00−9ssw3695100 0.3 1021204
15:00−9ssw3596100 0.6 1022132
18:00−10ssw369699 0.3 1023146
21:00−10ssw469599 0.6 1025189
23 january, sun
sun2300:00−12ssw479586 0.3 1025177
03:00−13ssw479575 0.4 1026158
06:00−17ssw479351 0.1 1026106
09:00−19ssw489818 0.1 102792
12:00−15ssw51291100 0.0 1027236
15:00−14ssw6138885 0.0 1027261
18:00−13ssw7158989 0.0 1026300
21:00−12ssw9178794 0.0 1025343